Time,TemperatureF,DewpointF,PressureIn,WindDirection,WindDirectionDegrees,WindSpeedMPH,WindSpeedGustMPH,Humidity,HourlyPrecipIn,Conditions,Clouds,dailyrainin,SoftwareType,DateUTC
2013-03-11 00:05:00,28.5,25.1,29.82,NNW,337,0.0,0.0,87,0.00,,,0.04,WUHU140HW,2013-03-11 05:05:00,
2013-03-11 00:16:00,28.5,25.4,29.82,North,0,0.0,0.0,88,0.00,,,0.04,WUHU140HW,2013-03-11 05:16:00,
2013-03-11 00:28:00,28.5,25.4,29.82,NW,315,0.0,0.0,88,0.00,,,0.04,WUHU140HW,2013-03-11 05:28:00,
2013-03-11 00:39:00,28.2,25.1,29.81,NNW,337,0.0,0.0,88,0.00,,,0.04,WUHU140HW,2013-03-11 05:39:00,
2013-03-11 00:50:00,28.2,25.1,29.81,NW,315,0.0,0.0,88,0.00,,,0.04,WUHU140HW,2013-03-11 05:50:00,
2013-03-11 01:02:00,28.2,25.1,29.81,NNW,337,0.0,0.0,88,0.00,,,0.04,WUHU140HW,2013-03-11 06:02:00,
2013-03-11 01:13:00,28.2,25.1,29.81,NNE,22,0.0,0.0,88,0.00,,,0.02,WUHU140HW,2013-03-11 06:13:00,
2013-03-11 01:25:00,28.2,25.1,29.81,WNW,292,0.0,0.0,88,0.00,,,0.02,WUHU140HW,2013-03-11 06:25:00,
2013-03-11 01:36:00,28.2,25.1,29.81,WNW,292,0.0,0.0,88,0.00,,,0.02,WUHU140HW,2013-03-11 06:36:00,
2013-03-11 01:48:00,28.2,25.1,29.80,NW,315,0.0,0.0,88,0.00,,,0.02,WUHU140HW,2013-03-11 06:48:00,
2013-03-11 01:59:00,28.2,24.8,29.80,NE,45,0.0,0.0,87,0.00,,,0.02,WUHU140HW,2013-03-11 06:59:00,
2013-03-11 02:11:00,28.2,24.8,29.80,NNE,22,0.0,0.0,87,0.00,,,0.02,WUHU140HW,2013-03-11 07:11:00,
2013-03-11 02:22:00,28.2,24.5,29.80,NW,315,0.0,0.0,86,0.00,,,0.02,WUHU140HW,2013-03-11 07:22:00,
2013-03-11 02:33:00,28.2,24.5,29.80,WNW,292,0.0,0.0,86,0.00,,,0.02,WUHU140HW,2013-03-11 07:33:00,
2013-03-11 02:45:00,28.2,24.2,29.80,NE,45,0.0,0.0,85,0.00,,,0.02,WUHU140HW,2013-03-11 07:45:00,
2013-03-11 02:56:00,28.2,24.2,29.79,NNW,337,0.0,0.0,85,0.00,,,0.02,WUHU140HW,2013-03-11 07:56:00,
2013-03-11 03:08:00,28.2,23.9,29.79,North,0,0.0,0.0,84,0.00,,,0.02,WUHU140HW,2013-03-11 08:08:00,
2013-03-11 03:19:00,28.2,23.9,29.79,NNW,337,0.0,0.0,84,0.00,,,0.02,WUHU140HW,2013-03-11 08:19:00,
2013-03-11 03:31:00,28.2,23.9,29.79,NNW,337,0.0,0.0,84,0.00,,,0.02,WUHU140HW,2013-03-11 08:31:00,
2013-03-11 03:42:00,28.0,23.7,29.78,NW,315,0.0,0.0,84,0.00,,,0.02,WUHU140HW,2013-03-11 08:42:00,
2013-03-11 03:54:00,27.6,23.1,29.78,NW,315,0.0,0.0,83,0.00,,,0.02,WUHU140HW,2013-03-11 08:54:00,
2013-03-11 04:05:00,27.6,23.1,29.78,NNW,337,0.0,0.0,83,0.00,,,0.02,WUHU140HW,2013-03-11 09:05:00,
2013-03-11 04:17:00,27.5,22.9,29.77,NNW,337,0.0,0.0,83,0.00,,,0.02,WUHU140HW,2013-03-11 09:17:00,
2013-03-11 04:28:00,27.3,22.7,29.76,NNW,337,0.0,0.0,83,0.00,,,0.02,WUHU140HW,2013-03-11 09:28:00,
2013-03-11 04:40:00,27.1,22.6,29.76,NW,315,0.0,0.0,83,0.00,,,0.02,WUHU140HW,2013-03-11 09:40:00,
2013-03-11 04:51:00,26.7,22.2,29.76,NNW,337,0.0,0.0,83,0.00,,,0.02,WUHU140HW,2013-03-11 09:51:00,
2013-03-11 05:03:00,26.7,22.2,29.76,NNW,337,0.0,0.0,83,0.00,,,0.02,WUHU140HW,2013-03-11 10:03:00,
2013-03-11 05:14:00,26.7,22.2,29.76,NW,315,0.0,0.0,83,0.00,,,0.02,WUHU140HW,2013-03-11 10:14:00,
2013-03-11 05:25:00,26.4,21.8,29.76,NW,315,0.0,0.0,83,0.00,,,0.02,WUHU140HW,2013-03-11 10:25:00,
2013-03-11 05:37:00,26.4,21.8,29.76,NNW,337,0.0,0.0,83,0.00,,,0.02,WUHU140HW,2013-03-11 10:37:00,
2013-03-11 05:48:00,26.4,21.8,29.75,NW,315,0.0,0.0,83,0.00,,,0.02,WUHU140HW,2013-03-11 10:48:00,
2013-03-11 06:00:00,26.4,21.8,29.75,NW,315,0.0,0.0,83,0.00,,,0.02,WUHU140HW,2013-03-11 11:00:00,
2013-03-11 06:11:00,26.4,21.8,29.75,NNW,337,0.0,0.0,83,0.00,,,0.02,WUHU140HW,2013-03-11 11:11:00,
2013-03-11 06:23:00,26.2,21.7,29.75,NNW,337,0.0,0.0,83,0.00,,,0.02,WUHU140HW,2013-03-11 11:23:00,
2013-03-11 06:34:00,26.2,21.7,29.75,WNW,292,0.0,0.0,83,0.00,,,0.02,WUHU140HW,2013-03-11 11:34:00,
2013-03-11 06:45:00,26.2,21.7,29.75,NW,315,0.0,0.0,83,0.00,,,0.02,WUHU140HW,2013-03-11 11:45:00,
2013-03-11 06:57:00,26.2,21.7,29.75,NNW,337,0.0,0.0,83,0.00,,,0.02,WUHU140HW,2013-03-11 11:57:00,
2013-03-11 07:08:00,26.2,21.7,29.75,NNW,337,0.0,0.0,83,0.00,,,0.02,WUHU140HW,2013-03-11 12:08:00,
2013-03-11 07:20:00,26.2,21.7,29.75,North,0,0.0,0.0,83,0.00,,,0.02,WUHU140HW,2013-03-11 12:20:00,
2013-03-11 07:31:00,26.2,21.7,29.75,North,0,0.0,0.0,83,0.00,,,0.02,WUHU140HW,2013-03-11 12:31:00,
2013-03-11 07:42:00,26.2,21.7,29.76,NW,315,0.0,0.0,83,0.00,,,0.02,WUHU140HW,2013-03-11 12:42:00,
2013-03-11 07:54:00,26.2,22.0,29.76,NW,315,0.0,0.0,84,0.00,,,0.02,WUHU140HW,2013-03-11 12:54:00,
2013-03-11 08:05:00,26.2,22.0,29.76,NW,315,0.0,0.0,84,0.00,,,0.02,WUHU140HW,2013-03-11 13:05:00,
2013-03-11 08:17:00,26.2,21.8,29.76,NNW,337,0.0,0.0,83,0.00,,,0.02,WUHU140HW,2013-03-11 13:17:00,
2013-03-11 08:28:00,26.4,21.8,29.76,NNE,22,0.0,0.0,83,0.00,,,0.02,WUHU140HW,2013-03-11 13:28:00,
2013-03-11 08:40:00,26.4,21.8,29.77,NNW,337,0.0,0.0,83,0.00,,,0.02,WUHU140HW,2013-03-11 13:40:00,
2013-03-11 08:51:00,26.6,22.2,29.77,NW,315,0.0,0.0,83,0.00,,,0.02,WUHU140HW,2013-03-11 13:51:00,
2013-03-11 09:03:00,26.7,21.9,29.77,NNW,337,0.0,0.0,82,0.00,,,0.02,WUHU140HW,2013-03-11 14:03:00,
2013-03-11 09:14:00,27.1,22.3,29.77,NW,315,0.0,0.0,82,0.00,,,0.02,WUHU140HW,2013-03-11 14:14:00,
2013-03-11 09:25:00,27.1,22.3,29.76,WNW,292,0.0,0.0,82,0.00,,,0.02,WUHU140HW,2013-03-11 14:25:00,
2013-03-11 09:37:00,27.3,22.2,29.77,NW,315,0.0,0.0,81,0.00,,,0.02,WUHU140HW,2013-03-11 14:37:00,
2013-03-11 09:48:00,27.6,22.5,29.77,NW,315,0.0,0.0,81,0.00,,,0.02,WUHU140HW,2013-03-11 14:48:00,
2013-03-11 10:00:00,27.6,22.2,29.77,NW,315,0.0,0.0,80,0.00,,,0.02,WUHU140HW,2013-03-11 15:00:00,
2013-03-11 10:11:00,27.6,22.2,29.77,NW,315,0.0,0.0,80,0.00,,,0.02,WUHU140HW,2013-03-11 15:11:00,
2013-03-11 10:23:00,27.8,22.4,29.77,NNE,22,0.0,0.0,80,0.00,,,0.02,WUHU140HW,2013-03-11 15:23:00,
2013-03-11 10:34:00,28.5,23.1,29.77,NNW,337,0.0,0.0,80,0.00,,,0.02,WUHU140HW,2013-03-11 15:34:00,
2013-03-11 10:45:00,28.5,22.8,29.76,WNW,292,0.0,0.0,79,0.00,,,0.02,WUHU140HW,2013-03-11 15:45:00,
2013-03-11 10:57:00,29.1,23.0,29.76,NNW,337,0.0,0.0,78,0.00,,,0.02,WUHU140HW,2013-03-11 15:57:00,
2013-03-11 11:08:00,29.3,22.9,29.76,North,0,0.0,0.0,77,0.00,,,0.00,WUHU140HW,2013-03-11 16:08:00,
2013-03-11 11:20:00,30.0,23.3,29.76,NW,315,0.0,0.0,76,0.00,,,0.00,WUHU140HW,2013-03-11 16:20:00,
2013-03-11 11:31:00,30.3,23.3,29.75,WNW,292,0.0,0.0,75,0.00,,,0.00,WUHU140HW,2013-03-11 16:31:00,
2013-03-11 11:42:00,30.7,23.7,29.75,NW,315,0.0,0.0,75,0.00,,,0.00,WUHU140HW,2013-03-11 16:42:00,
2013-03-11 11:54:00,31.8,24.4,29.75,NW,315,0.0,0.0,74,0.00,,,0.00,WUHU140HW,2013-03-11 16:54:00,
2013-03-11 12:05:00,32.1,24.1,29.74,North,0,0.0,0.0,72,0.00,,,0.00,WUHU140HW,2013-03-11 17:05:00,
2013-03-11 12:17:00,32.9,24.4,29.74,WNW,292,0.0,0.0,71,0.00,,,0.00,WUHU140HW,2013-03-11 17:17:00,
2013-03-11 12:28:00,32.9,24.1,29.74,NW,315,0.0,0.0,70,0.00,,,0.00,WUHU140HW,2013-03-11 17:28:00,
2013-03-11 12:40:00,33.0,24.6,29.74,NW,315,0.0,0.0,71,0.00,,,0.00,WUHU140HW,2013-03-11 17:40:00,
2013-03-11 12:51:00,33.9,25.1,29.74,NW,315,0.0,0.0,70,0.00,,,0.00,WUHU140HW,2013-03-11 17:51:00,
2013-03-11 13:02:00,34.3,25.1,29.74,North,0,0.0,0.0,69,0.00,,,0.00,WUHU140HW,2013-03-11 18:02:00,
2013-03-11 13:14:00,34.8,25.3,29.74,NW,315,0.0,0.0,68,0.00,,,0.00,WUHU140HW,2013-03-11 18:14:00,
2013-03-11 13:25:00,35.4,25.1,29.73,NW,315,0.0,0.0,66,0.00,,,0.00,WUHU140HW,2013-03-11 18:25:00,
2013-03-11 13:37:00,34.3,24.0,29.73,WNW,292,0.0,0.0,66,0.00,,,0.00,WUHU140HW,2013-03-11 18:37:00,
2013-03-11 13:48:00,33.6,24.0,29.73,NW,315,0.0,0.0,68,0.00,,,0.00,WUHU140HW,2013-03-11 18:48:00,
2013-03-11 14:00:00,33.0,23.9,29.73,NW,315,0.0,0.0,69,0.00,,,0.00,WUHU140HW,2013-03-11 19:00:00,
2013-03-11 14:11:00,32.5,23.8,29.73,NW,315,0.0,0.0,70,0.00,,,0.00,WUHU140HW,2013-03-11 19:11:00,
2013-03-11 14:23:00,32.5,23.8,29.72,NW,315,0.0,0.0,70,0.00,,,0.00,WUHU140HW,2013-03-11 19:23:00,
2013-03-11 14:34:00,32.1,23.5,29.72,NW,315,0.0,0.0,70,0.00,,,0.00,WUHU140HW,2013-03-11 19:34:00,
2013-03-11 14:46:00,31.8,23.5,29.72,NW,315,0.0,0.0,71,0.00,,,0.00,WUHU140HW,2013-03-11 19:46:00,
2013-03-11 14:57:00,31.8,23.5,29.72,WNW,292,0.0,0.0,71,0.00,,,0.00,WUHU140HW,2013-03-11 19:57:00,
2013-03-11 15:09:00,31.8,23.8,29.72,NW,315,0.0,0.0,72,0.00,,,0.00,WUHU140HW,2013-03-11 20:09:00,
2013-03-11 15:20:00,31.2,23.2,29.73,NNW,337,0.0,0.0,72,0.00,,,0.00,WUHU140HW,2013-03-11 20:20:00,
2013-03-11 15:31:00,31.2,23.6,29.73,NW,315,0.0,0.0,73,0.00,,,0.00,WUHU140HW,2013-03-11 20:31:00,
2013-03-11 15:43:00,31.8,23.8,29.73,NW,315,0.0,0.0,72,0.00,,,0.00,WUHU140HW,2013-03-11 20:43:00,
2013-03-11 15:54:00,31.8,23.5,29.73,NW,315,0.0,0.0,71,0.00,,,0.00,WUHU140HW,2013-03-11 20:54:00,
2013-03-11 16:06:00,32.3,24.0,29.73,NW,315,0.0,0.0,71,0.02,,,0.02,WUHU140HW,2013-03-11 21:06:00,
2013-03-11 16:17:00,32.7,24.0,29.73,NW,315,0.0,0.0,70,0.02,,,0.02,WUHU140HW,2013-03-11 21:17:00,
2013-03-11 16:29:00,32.7,24.0,29.73,NW,315,0.0,0.0,70,0.02,,,0.02,WUHU140HW,2013-03-11 21:29:00,
2013-03-11 16:40:00,31.8,22.4,29.74,NW,315,0.0,0.0,68,0.02,,,0.02,WUHU140HW,2013-03-11 21:40:00,
2013-03-11 16:51:00,31.6,22.2,29.74,NW,315,0.0,0.0,69,0.02,,,0.02,WUHU140HW,2013-03-11 21:51:00,
2013-03-11 17:03:00,31.1,21.7,29.74,NW,315,0.0,0.0,68,0.00,,,0.02,WUHU140HW,2013-03-11 22:03:00,
2013-03-11 17:14:00,31.1,21.3,29.74,NW,315,0.0,0.0,67,0.00,,,0.02,WUHU140HW,2013-03-11 22:14:00,
2013-03-11 17:26:00,31.2,21.5,29.74,NW,315,0.0,0.0,67,0.00,,,0.02,WUHU140HW,2013-03-11 22:26:00,
2013-03-11 17:37:00,30.7,21.0,29.74,WNW,292,0.0,0.0,67,0.00,,,0.02,WUHU140HW,2013-03-11 22:37:00,
2013-03-11 17:49:00,30.2,20.8,29.74,WNW,292,0.0,0.0,68,0.00,,,0.02,WUHU140HW,2013-03-11 22:49:00,
2013-03-11 18:00:00,29.8,20.8,29.75,WNW,292,0.0,0.0,69,0.00,,,0.02,WUHU140HW,2013-03-11 23:00:00,
2013-03-11 18:11:00,29.1,20.5,29.75,WNW,292,0.0,0.0,70,0.00,,,0.02,WUHU140HW,2013-03-11 23:11:00,
2013-03-11 18:23:00,28.5,20.7,29.75,WNW,292,0.0,0.0,72,0.00,,,0.02,WUHU140HW,2013-03-11 23:23:00,
2013-03-11 18:34:00,28.2,20.3,29.75,NW,315,0.0,0.0,72,0.00,,,0.02,WUHU140HW,2013-03-11 23:34:00,
2013-03-11 18:46:00,27.8,20.0,29.75,NW,315,0.0,0.0,72,0.00,,,0.02,WUHU140HW,2013-03-11 23:46:00,
2013-03-11 18:57:00,27.5,19.9,29.76,WNW,292,0.0,0.0,73,0.00,,,0.02,WUHU140HW,2013-03-11 23:57:00,
2013-03-11 19:09:00,27.1,19.5,29.76,WNW,292,0.0,0.0,73,0.00,,,0.02,WUHU140HW,2013-03-12 00:09:00,
2013-03-11 19:20:00,27.1,19.5,29.76,WNW,292,0.0,0.0,73,0.00,,,0.02,WUHU140HW,2013-03-12 00:20:00,
2013-03-11 19:32:00,26.4,19.1,29.77,WNW,292,0.0,0.0,74,0.00,,,0.02,WUHU140HW,2013-03-12 00:32:00,
2013-03-11 19:43:00,26.0,19.1,29.77,West,270,0.0,0.0,75,0.00,,,0.02,WUHU140HW,2013-03-12 00:43:00,
2013-03-11 19:55:00,25.5,18.9,29.78,WNW,292,0.0,0.0,76,0.00,,,0.02,WUHU140HW,2013-03-12 00:55:00,
2013-03-11 20:06:00,24.6,18.4,29.77,WNW,292,0.0,0.0,77,0.00,,,0.02,WUHU140HW,2013-03-12 01:06:00,
2013-03-11 20:17:00,24.4,18.5,29.78,WNW,292,0.0,0.0,78,0.00,,,0.02,WUHU140HW,2013-03-12 01:17:00,
2013-03-11 20:29:00,24.4,18.5,29.78,WNW,292,0.0,0.0,78,0.00,,,0.02,WUHU140HW,2013-03-12 01:29:00,
2013-03-11 20:40:00,24.0,18.2,29.79,WNW,292,0.0,0.0,78,0.00,,,0.02,WUHU140HW,2013-03-12 01:40:00,
2013-03-11 20:52:00,23.9,18.0,29.79,WNW,292,0.0,0.0,78,0.00,,,0.02,WUHU140HW,2013-03-12 01:52:00,
2013-03-11 21:03:00,23.7,17.5,29.79,WNW,292,0.0,0.0,77,0.00,,,0.02,WUHU140HW,2013-03-12 02:03:00,
2013-03-11 21:15:00,23.5,17.3,29.79,WNW,292,0.0,0.0,77,0.00,,,0.02,WUHU140HW,2013-03-12 02:15:00,
2013-03-11 21:26:00,23.1,17.0,29.80,WNW,292,0.0,0.0,77,0.00,,,0.02,WUHU140HW,2013-03-12 02:26:00,
2013-03-11 21:38:00,22.8,16.6,29.81,West,270,0.0,0.0,77,0.00,,,0.02,WUHU140HW,2013-03-12 02:38:00,
2013-03-11 21:49:00,22.4,16.3,29.81,WNW,292,0.0,0.0,77,0.00,,,0.02,WUHU140HW,2013-03-12 02:49:00,
2013-03-11 22:01:00,21.9,16.0,29.81,WNW,292,0.0,0.0,78,0.00,,,0.02,WUHU140HW,2013-03-12 03:01:00,
2013-03-11 22:13:00,21.7,16.2,29.81,West,270,0.0,0.0,79,0.00,,,0.02,WUHU140HW,2013-03-12 03:13:00,
2013-03-11 22:24:00,21.5,16.0,29.81,WNW,292,0.0,0.0,79,0.00,,,0.02,WUHU140HW,2013-03-12 03:24:00,
2013-03-11 22:35:00,21.7,16.2,29.82,West,270,0.0,0.0,79,0.00,,,0.02,WUHU140HW,2013-03-12 03:35:00,
2013-03-11 22:47:00,21.3,15.8,29.81,WNW,292,0.0,0.0,79,0.00,,,0.02,WUHU140HW,2013-03-12 03:47:00,
2013-03-11 22:58:00,21.0,15.4,29.82,WNW,292,0.0,0.0,79,0.00,,,0.02,WUHU140HW,2013-03-12 03:58:00,
2013-03-11 23:10:00,21.0,15.8,29.82,WNW,292,0.0,0.0,80,0.00,,,0.02,WUHU140HW,2013-03-12 04:10:00,
2013-03-11 23:21:00,20.8,15.6,29.82,West,270,0.0,0.0,80,0.00,,,0.02,WUHU140HW,2013-03-12 04:21:00,
2013-03-11 23:33:00,20.3,15.0,29.82,WNW,292,0.0,0.0,80,0.00,,,0.02,WUHU140HW,2013-03-12 04:33:00,
2013-03-11 23:44:00,19.5,14.3,29.82,WNW,292,0.0,0.0,80,0.00,,,0.02,WUHU140HW,2013-03-12 04:44:00,
2013-03-11 23:55:00,19.0,13.8,29.82,WNW,292,0.0,0.0,80,0.00,,,0.02,WUHU140HW,2013-03-12 04:55:00,